GFSSE_sfc_temp_276.txt.gz
Temp
62 66 71 73 76 75 76 76 76 76 76 76 76 76 76 75 75 75 76 76 77 77 78 77 77 77 75 75 74 74 74 74 74 74 74 75 75 74 73 73 73 73 74
65 69 69 73 74 75 76 75 74 75 76 76 76 76 76 75 75 76 75 76 77 78 77 76 76 76 75 74 74 74 73 73 72 72 73 73 73 74 73 73 74 73 74
64 68 71 73 73 75 75 74 74 75 75 76 76 76 76 75 75 75 74 76 77 78 77 77 75 74 74 73 73 73 73 73 72 72 72 69 68 73 74 73 74 74 74
66 67 68 69 72 73 74 75 74 75 75 76 76 76 76 76 75 75 75 76 77 77 77 76 75 74 73 73 73 73 73 72 71 72 70 72 73 74 73 73 73 73 73
65 66 66 68 71 72 73 74 74 74 74 75 75 75 76 76 75 74 74 76 76 77 76 75 75 73 73 72 72 72 72 72 71 72 70 69 71 73 73 73 72 71 71
62 63 65 67 68 69 70 72 73 74 75 75 75 75 75 75 75 74 74 75 75 76 76 75 75 73 72 71 71 71 72 71 71 71 70 72 69 73 73 72 71 71 70
60 62 62 64 66 67 68 68 71 72 74 75 75 75 75 74 75 74 74 75 74 75 75 74 73 72 72 71 71 70 70 70 69 68 71 69 69 72 73 72 71 71 71
60 60 60 61 62 64 65 65 66 68 71 72 73 74 74 74 74 74 74 74 74 74 74 73 73 72 71 70 70 69 69 67 69 68 69 67 71 72 72 71 71 71 70
60 59 58 59 61 61 63 64 64 65 66 69 72 72 70 70 72 72 73 73 74 74 74 73 72 71 71 69 68 67 66 66 63 67 70 65 71 71 71 70 70 69 69
61 58 58 58 59 60 61 62 62 63 63 65 67 66 66 68 67 68 67 70 72 72 73 71 71 70 70 68 67 66 65 65 66 66 65 65 71 71 71 70 69 68 68
58 58 57 55 57 59 61 62 62 63 62 63 65 63 65 68 70 68 66 68 70 70 71 70 70 69 67 66 65 65 64 65 65 65 64 68 71 71 70 69 69 68 68
53 55 55 54 54 58 61 60 60 63 62 63 64 66 67 70 70 71 64 65 66 66 68 69 68 66 65 62 61 63 62 66 65 64 63 68 70 70 70 69 68 68 68
53 53 54 54 54 55 57 57 59 61 61 61 63 63 67 70 69 66 63 64 64 61 64 66 65 66 65 63 62 62 65 64 64 63 64 66 69 70 70 69 68 68 68
52 52 52 52 53 54 56 57 58 58 62 60 62 63 64 64 67 65 65 65 64 64 62 63 63 65 66 66 65 64 65 63 63 63 61 63 66 69 70 70 69 69 69
51 51 51 51 51 54 54 57 55 56 58 59 60 63 64 64 63 64 65 66 65 65 65 63 64 65 66 66 65 65 64 64 64 64 60 60 64 67 68 69 70 70 71
52 50 51 51 50 53 53 55 54 57 58 59 59 61 64 64 63 63 64 65 65 66 65 64 63 64 65 64 64 65 64 64 64 64 63 60 62 65 67 68 69 70 70
51 52 51 51 51 51 52 54 53 56 58 57 59 60 64 65 64 66 64 64 66 66 63 65 64 65 64 64 63 64 65 64 64 63 63 63 62 61 64 67 68 68 68
51 51 51 53 51 51 52 51 54 54 55 55 57 57 64 65 66 67 64 65 65 64 64 64 63 59 61 62 61 62 63 63 63 63 62 62 62 63 62 65 66 65 65
51 51 50 50 49 49 50 50 51 52 53 53 55 56 63 66 67 66 65 65 63 64 65 64 60 60 60 59 61 62 61 61 62 64 62 62 62 62 61 63 62 61 63
51 51 50 50 49 49 48 48 48 51 50 52 52 54 60 65 66 65 65 65 63 62 63 61 60 59 61 60 65 62 59 60 60 59 61 63 64 62 60 61 58 58 61
51 50 49 48 47 47 44 42 43 45 46 50 51 53 55 63 63 63 63 62 64 62 63 64 60 59 58 59 56 56 57 59 59 60 62 63 61 64 64 63 61 59 57
48 48 48 47 47 47 45 44 42 44 47 49 49 50 52 56 59 61 62 62 63 61 60 62 60 57 57 58 55 54 52 55 57 58 57 57 56 57 57 55 53 52 49
45 44 47 46 46 46 46 45 44 47 48 47 46 47 49 54 56 58 60 62 63 63 61 60 61 59 56 57 58 55 51 49 53 55 55 55 55 54 51 51 50 49 49
44 45 46 46 46 47 46 43 42 42 42 44 45 46 48 52 53 55 58 60 60 61 60 61 62 61 59 56 58 58 57 56 51 51 56 54 53 52 50 48 47 47 47
45 43 44 45 46 47 45 43 41 41 43 45 46 46 47 50 53 53 55 57 60 61 61 60 59 60 59 57 56 54 54 56 56 52 49 51 51 48 46 45 45 44 45
44 43 43 44 46 46 44 42 41 43 44 44 44 45 45 47 50 51 52 54 57 60 60 60 60 60 59 59 58 57 56 54 54 52 51 52 51 45 44 44 43 42 42

GFSSE_sfc_temp_279.txt.gz
Temp
62 66 69 72 74 75 76 75 76 76 76 76 76 76 75 76 75 75 76 76 77 77 77 77 76 76 75 75 75 75 74 74 74 74 74 74 74 74 74 73 73 72 74
65 68 68 70 74 75 76 75 75 75 76 76 76 76 76 76 75 75 76 76 77 77 76 76 76 75 75 74 74 74 73 73 72 72 72 72 73 74 74 74 73 73 74
64 68 67 69 72 73 74 74 74 75 76 75 76 76 76 76 76 75 75 76 77 76 76 76 75 74 74 73 74 74 73 72 72 71 71 66 68 74 74 74 74 73 73
65 65 66 68 70 72 73 74 74 74 75 76 76 76 75 76 76 75 75 76 77 77 77 75 75 74 73 73 73 73 73 72 71 71 70 69 71 73 74 73 73 73 72
63 64 64 66 69 70 70 71 74 74 74 75 75 75 75 76 76 75 75 75 76 77 76 75 74 73 73 72 73 73 73 72 71 71 65 67 68 73 73 72 72 71 71
60 62 63 65 67 69 68 70 70 73 74 74 74 74 75 75 75 74 74 75 75 76 76 75 73 73 72 72 72 72 72 71 70 68 65 69 67 73 72 72 71 70 71
58 61 61 63 64 66 67 67 68 68 71 73 74 73 73 74 74 73 74 75 75 75 74 75 73 72 71 71 71 71 70 69 69 69 68 67 68 73 72 72 71 71 70
56 58 59 60 62 63 65 66 66 67 68 70 72 73 73 73 73 73 73 74 74 74 74 73 72 71 71 70 70 69 68 66 66 64 68 63 70 73 72 72 71 71 70
57 56 55 56 58 60 62 63 64 65 65 67 69 71 70 70 71 72 71 72 73 74 73 72 71 71 70 69 69 68 67 66 62 64 67 64 70 71 71 70 69 69 68
56 55 54 54 55 56 59 61 61 63 63 64 64 65 65 66 66 69 68 70 72 73 72 71 70 70 70 69 67 67 66 64 62 63 63 64 70 71 70 69 69 68 68
55 54 53 52 53 54 58 61 60 62 62 63 63 62 63 67 68 65 65 67 71 71 71 70 70 69 67 66 66 65 64 62 62 62 62 68 71 71 70 70 69 68 67
50 51 51 51 51 53 58 57 59 62 62 63 63 63 64 67 66 69 62 64 66 67 68 69 68 65 64 62 61 63 62 62 62 61 63 68 70 71 70 69 68 68 68
50 51 51 50 51 51 52 54 55 58 60 62 62 63 63 65 64 64 62 64 65 63 65 65 64 65 63 61 60 60 62 62 60 61 63 66 70 70 70 69 69 68 68
49 50 50 50 49 50 50 52 57 58 57 59 61 62 62 61 62 63 64 64 63 63 63 63 62 63 64 63 63 62 62 61 60 60 60 63 67 70 70 70 69 69 70
48 49 49 49 48 50 50 50 54 56 54 57 59 59 61 61 61 62 64 64 63 63 62 62 62 62 63 64 64 63 62 62 62 60 59 60 64 67 68 69 70 70 71
50 48 49 49 49 49 49 49 51 55 57 58 58 59 60 62 62 63 64 64 63 63 63 62 63 62 61 63 64 64 63 63 63 61 60 60 62 65 67 68 69 69 70
49 49 49 50 50 48 49 49 50 53 56 56 57 58 60 61 62 62 63 63 64 64 64 64 64 64 64 64 63 63 63 62 62 62 61 60 60 61 64 67 68 68 67
48 49 49 51 48 48 48 48 50 52 53 54 55 56 58 58 64 63 62 63 64 63 63 63 63 60 60 62 61 61 63 61 62 61 60 60 60 61 61 65 66 65 66
49 49 48 47 46 46 48 47 48 50 52 52 54 54 56 57 63 64 62 63 64 63 62 63 62 59 58 60 60 61 61 60 61 62 61 61 60 60 59 63 61 61 64
47 47 47 47 46 46 46 46 45 49 49 51 52 52 54 57 64 64 63 63 63 62 62 62 61 60 60 59 62 61 61 58 58 58 59 61 62 62 61 60 58 58 60
47 46 45 45 44 44 41 40 40 43 46 49 49 51 52 54 63 64 64 63 63 62 61 61 59 59 56 57 57 54 55 57 57 57 60 61 61 62 60 57 57 54 54
44 43 45 45 44 44 42 41 41 41 45 48 49 50 51 52 57 63 63 61 62 61 61 60 60 55 55 56 53 53 50 53 54 55 54 55 53 53 52 51 50 49 47
41 41 44 44 44 44 43 43 42 44 46 46 45 47 49 51 54 59 61 62 62 62 60 60 60 58 54 55 57 54 49 48 50 53 52 52 50 49 48 49 48 48 48
40 41 43 45 46 47 43 40 39 42 41 44 45 47 48 50 52 54 58 60 61 62 61 61 61 57 58 54 55 56 55 53 49 47 52 52 50 50 47 47 45 45 46
42 40 40 43 45 45 44 42 39 39 40 42 43 46 47 49 51 51 55 57 60 60 61 60 58 59 58 56 55 53 53 53 53 50 47 50 48 46 45 44 44 43 43
40 39 40 42 44 44 42 40 39 39 39 42 45 45 46 47 49 49 51 54 57 60 60 60 59 59 58 57 56 55 54 53 52 51 49 50 49 44 43 42 41 41 41

GFSSE_sfc_temp_285.txt.gz
Temp
62 66 68 69 72 74 74 75 75 75 75 74 75 75 75 75 75 75 76 76 76 77 77 77 77 76 75 75 75 75 75 75 73 74 74 74 74 74 74 73 71 71 74
61 66 66 68 71 72 73 73 74 74 75 75 75 75 75 75 75 76 76 76 77 76 76 77 75 75 75 74 74 73 73 72 71 71 72 73 74 74 74 73 72 72 74
60 64 65 66 69 71 72 72 73 74 75 75 75 75 75 75 75 76 76 76 76 75 76 76 75 74 74 73 73 73 72 71 71 70 70 67 70 74 73 73 72 73 73
60 62 63 65 68 70 70 72 72 73 74 75 75 75 75 75 75 75 76 76 75 76 76 76 75 74 73 73 73 73 72 71 70 69 67 68 70 74 74 73 72 72 72
57 59 60 64 67 68 69 70 71 72 73 74 75 74 75 75 75 74 75 75 75 75 76 76 75 74 73 73 73 73 72 71 69 66 62 63 68 73 74 72 71 71 71
55 57 58 63 64 66 67 68 70 71 72 73 73 74 73 74 74 74 73 74 75 75 75 75 74 74 73 73 73 72 72 71 67 62 62 67 65 73 73 71 70 70 70
53 55 56 61 62 63 64 66 68 68 68 69 70 72 72 74 74 73 73 74 74 75 75 74 74 73 73 72 72 71 70 69 62 60 61 62 66 73 72 71 71 70 69
53 54 54 57 59 61 62 63 65 67 67 66 66 66 68 71 73 73 73 72 72 72 73 73 73 72 72 71 70 69 68 67 64 61 63 62 69 72 72 71 70 69 68
53 52 51 52 54 56 58 60 61 63 66 67 66 66 66 68 70 72 71 72 73 72 73 72 72 71 71 70 69 68 65 64 59 60 63 64 70 72 71 70 69 68 68
52 51 50 50 50 51 51 58 58 60 63 64 65 64 64 64 66 67 66 68 69 71 72 71 70 70 70 69 67 65 64 63 59 60 60 63 69 72 70 69 68 68 67
52 50 49 48 49 49 53 55 55 57 60 62 62 62 63 65 65 64 63 65 68 69 70 70 69 68 66 66 65 64 62 59 59 60 60 67 70 70 70 69 68 68 67
48 49 49 48 47 48 54 50 50 55 58 60 61 62 63 64 64 64 61 61 66 65 68 69 68 66 63 62 61 62 59 59 59 59 60 68 70 70 70 69 68 68 68
47 48 48 47 47 46 47 48 48 50 53 57 59 61 62 64 63 62 62 61 62 60 65 65 63 61 62 61 60 60 59 59 58 58 62 66 70 70 70 69 69 69 69
46 47 48 47 47 47 46 47 47 49 51 55 57 59 59 61 61 61 62 62 62 64 63 61 60 60 61 62 61 59 59 58 57 58 59 63 67 70 70 69 69 69 68
46 47 47 46 46 47 46 46 47 48 49 54 57 58 58 58 60 61 61 63 63 64 62 60 59 59 59 61 62 61 59 58 58 58 57 59 64 68 69 69 70 70 70
48 47 47 47 46 47 45 45 46 47 48 53 55 57 58 58 59 60 61 62 63 63 62 60 59 58 59 59 61 62 60 59 59 58 58 57 61 65 67 68 69 69 69
47 47 46 47 47 45 45 45 45 46 49 51 55 56 57 58 59 59 61 62 62 63 61 60 59 60 59 59 59 60 61 60 59 58 57 57 58 60 63 66 67 67 68
47 47 46 48 45 44 44 44 45 45 46 50 53 55 56 57 58 58 60 62 62 61 61 60 59 59 59 58 58 58 60 60 58 58 58 58 57 58 60 64 65 66 66
47 46 45 44 43 43 43 43 43 43 45 50 52 53 54 55 56 57 56 61 62 61 61 60 59 60 58 58 58 59 60 60 60 59 57 57 59 59 59 59 58 59 63
44 44 44 44 43 43 42 42 41 42 45 48 51 51 52 53 54 55 56 60 61 61 60 60 59 59 59 58 60 59 58 58 57 56 56 60 60 59 58 57 55 55 58
42 42 42 42 42 42 40 38 38 38 41 45 50 51 51 52 53 54 56 59 61 61 61 61 60 58 56 59 56 55 56 57 56 54 55 57 56 55 54 53 52 51 51
41 40 41 42 42 42 41 40 38 38 42 45 49 49 50 51 52 53 55 60 61 61 60 59 59 58 56 58 54 53 52 54 54 54 52 52 49 50 49 48 49 48 48
38 39 41 41 41 41 41 42 39 41 45 47 46 46 49 50 51 52 54 61 61 62 59 59 59 59 56 55 57 55 49 50 51 52 50 49 48 48 47 47 47 46 44
38 38 39 41 41 43 41 39 37 36 39 44 43 46 48 50 50 51 54 62 61 62 60 59 60 59 57 56 54 54 53 52 50 47 51 49 49 47 45 45 44 44 44
38 36 37 39 40 40 39 38 37 36 41 42 44 46 47 49 50 51 58 62 61 61 60 59 58 57 58 57 54 53 53 51 50 47 48 47 45 44 43 42 42 42 42
36 36 37 38 39 40 39 37 37 36 40 41 43 44 46 47 48 51 51 60 61 60 59 59 59 58 58 58 57 55 53 52 50 48 47 48 46 41 42 42 41 40 41

GFSSE_sfc_temp_288.txt.gz
Temp
58 62 67 69 71 72 73 74 75 74 75 75 74 74 75 75 75 75 75 76 76 77 77 77 76 75 76 76 75 75 75 74 74 74 74 75 74 74 73 72 72 70 74
58 62 65 67 70 71 72 73 73 74 74 75 75 75 75 75 75 75 76 76 76 77 78 77 76 75 75 74 74 73 72 72 72 71 72 73 74 74 73 73 73 72 73
58 61 61 66 68 70 71 72 73 73 75 75 75 74 75 75 75 76 76 76 76 77 77 76 76 75 74 73 73 73 72 71 71 71 70 66 67 74 74 72 73 73 73
58 59 60 65 67 68 69 71 72 71 74 75 75 75 75 75 75 75 75 75 75 76 76 76 75 74 73 73 73 72 72 71 70 69 67 67 69 73 73 73 72 72 73
55 57 58 64 66 67 67 69 70 71 71 74 75 75 74 75 75 75 74 74 74 75 75 75 75 74 73 73 73 72 71 70 69 67 66 64 66 73 73 72 71 71 71
53 55 57 63 64 65 65 67 68 69 70 71 73 74 74 74 74 75 74 73 73 74 75 75 74 74 73 73 72 72 71 70 66 61 61 66 64 73 72 71 70 70 70
52 53 54 61 62 63 63 64 65 67 69 68 68 70 72 73 73 73 74 73 72 74 75 74 74 73 73 72 72 71 70 68 61 59 61 61 64 73 72 71 70 70 69
51 52 53 55 58 60 61 62 63 64 66 68 67 66 67 69 71 72 74 73 73 74 74 74 73 73 72 71 71 70 68 66 62 60 60 61 69 72 72 71 70 69 68
51 51 50 50 52 55 57 59 60 62 63 65 67 66 66 66 66 68 71 72 73 72 74 73 72 72 71 70 70 67 66 64 59 60 63 63 70 72 71 70 69 68 68
51 50 49 48 48 48 49 57 57 59 61 62 63 64 64 64 65 67 66 69 70 71 72 71 71 70 70 69 67 65 63 62 59 60 60 65 71 71 70 69 68 68 68
51 49 48 47 47 47 51 53 53 55 58 60 60 62 62 65 64 65 63 65 66 67 69 69 69 69 67 66 65 63 62 59 59 59 60 66 70 70 70 69 68 68 68
47 48 47 46 46 46 53 48 48 51 52 57 59 60 63 64 64 64 60 61 64 65 66 67 68 65 63 62 62 62 59 59 59 59 60 67 70 70 70 69 68 68 68
47 47 48 47 46 45 45 46 46 47 49 52 57 59 60 62 62 62 62 61 63 61 64 64 63 61 61 60 60 59 59 58 58 59 62 66 70 70 70 69 69 69 69
46 47 47 46 46 45 44 44 45 47 48 49 54 58 58 58 61 60 61 62 62 63 63 61 59 59 60 61 61 59 58 59 57 58 59 63 67 70 70 70 70 68 69
46 46 46 45 45 46 45 44 44 45 46 48 53 56 58 57 58 60 60 61 61 63 61 59 59 58 58 60 61 61 59 58 57 57 57 59 64 68 69 69 70 70 70
47 46 47 46 45 45 44 43 43 44 46 48 51 55 57 56 57 58 59 60 61 62 61 59 58 57 57 58 59 60 59 58 58 57 57 57 62 65 67 68 69 69 69
47 46 46 45 46 44 43 43 43 43 46 45 50 55 56 57 57 58 58 60 61 61 60 59 58 58 58 58 58 59 59 59 58 57 56 56 57 60 63 67 67 67 68
45 46 45 48 44 43 42 42 43 42 43 45 51 54 54 56 57 57 57 59 61 61 59 58 57 57 57 57 57 57 58 59 58 57 56 57 56 57 61 62 63 65 66
45 45 44 43 42 42 42 43 42 42 42 49 48 52 53 53 55 55 56 57 61 60 60 59 58 57 57 57 57 57 57 59 59 58 58 59 59 58 58 58 57 59 63
42 43 43 43 42 42 41 41 41 41 42 45 46 51 52 52 53 53 55 56 59 61 59 59 58 59 58 58 58 57 57 58 58 57 57 59 59 58 56 54 53 54 58
41 42 41 41 41 40 38 37 39 38 39 42 48 50 50 51 51 53 54 55 57 60 59 59 59 58 57 58 55 55 55 56 55 54 55 55 53 52 53 52 51 50 51
40 39 40 40 40 40 39 38 39 37 39 43 48 48 50 51 51 53 53 54 57 59 60 59 59 57 56 57 54 54 51 52 52 52 52 51 49 50 48 48 48 48 47
37 37 39 39 39 40 39 39 39 40 41 45 45 46 48 50 51 51 53 53 57 61 60 60 59 58 55 56 57 54 50 49 50 51 49 49 48 47 47 47 46 46 46
37 36 38 39 39 42 39 37 36 35 37 41 43 45 48 50 50 51 52 53 55 61 60 59 60 59 57 55 54 55 54 53 48 47 50 48 47 46 45 44 44 44 45
37 35 36 37 39 39 39 37 35 35 36 41 42 44 47 49 50 50 51 53 56 61 61 60 59 59 59 57 56 53 52 51 50 48 47 45 44 43 43 42 42 42 43
35 35 35 36 37 39 38 36 35 35 36 38 42 43 45 46 47 49 51 54 60 61 60 60 59 58 57 57 55 55 54 52 49 47 47 47 45 41 41 41 41 41 41

GFSSE_sfc_temp_291.txt.gz
Temp
63 64 66 68 70 72 73 73 74 74 75 74 75 75 75 75 75 75 75 75 76 77 77 78 78 77 77 77 76 75 74 74 74 75 75 75 75 74 74 73 73 75 74
63 64 64 67 69 70 71 72 73 73 74 75 75 75 75 75 75 75 75 76 76 77 78 77 77 76 76 75 75 73 73 72 72 72 73 73 74 74 74 73 73 74 73
61 63 63 66 68 69 69 70 72 73 74 75 75 74 75 75 75 75 76 75 76 77 78 76 76 75 75 74 73 73 72 72 71 71 71 75 76 74 74 74 73 73 73
61 62 61 65 67 68 68 69 70 71 73 73 75 74 75 75 75 75 75 75 76 77 76 76 75 75 74 73 73 72 72 71 70 70 73 75 76 72 73 72 73 73 73
60 60 60 64 65 66 67 67 68 69 71 72 73 75 74 75 75 75 74 75 74 76 76 76 75 74 73 73 72 72 72 71 69 69 73 74 75 74 73 72 72 71 71
58 58 59 63 64 65 65 66 67 68 69 70 70 71 73 74 74 74 74 74 73 74 75 75 75 74 73 73 72 72 71 70 68 69 71 73 74 73 72 71 71 70 69
57 57 57 60 62 63 63 64 64 66 67 68 69 69 69 72 72 74 74 74 73 73 72 73 74 73 73 73 72 72 70 67 71 71 71 72 73 73 72 71 70 70 69
56 56 56 56 58 59 61 62 62 64 65 66 67 68 68 68 70 72 73 73 73 71 71 72 73 73 72 72 71 70 67 66 69 70 70 72 72 73 72 71 69 69 69
56 55 54 54 55 55 57 59 60 61 62 64 65 66 67 67 66 67 68 72 72 71 72 72 72 72 72 71 70 68 66 64 70 69 70 72 71 72 71 70 69 69 68
55 54 53 53 53 53 54 56 57 58 59 61 62 62 62 64 64 64 65 67 69 70 70 71 71 70 71 70 68 66 64 63 69 68 69 70 71 72 71 70 69 69 68
55 54 53 52 52 52 55 55 53 54 56 57 60 60 61 66 66 65 63 65 69 68 67 68 68 68 68 66 65 63 63 67 68 68 69 67 70 71 70 69 69 68 68
53 54 53 52 51 51 55 52 52 54 54 56 58 60 61 63 65 65 61 62 65 65 65 66 66 63 64 65 65 64 67 66 67 67 69 68 70 71 70 69 69 69 69
53 53 53 52 51 50 51 52 52 51 52 53 56 58 60 60 62 63 63 62 64 61 64 64 62 60 63 61 63 63 66 66 67 67 67 67 70 71 70 70 69 70 69
51 51 52 51 51 50 50 50 51 51 52 51 53 57 59 59 59 61 61 63 63 63 62 61 60 59 61 61 61 62 62 64 67 66 66 63 68 70 70 70 69 69 70
49 51 51 50 50 50 49 49 50 50 50 51 53 56 58 57 57 59 61 61 62 62 61 59 58 58 59 59 58 60 61 62 63 66 66 60 64 68 69 70 70 70 71
50 50 51 50 50 49 49 48 48 49 49 51 51 54 58 58 58 59 59 60 63 62 62 60 58 58 59 59 58 59 61 62 63 64 65 66 62 65 67 69 69 70 70
50 50 50 50 49 48 47 48 48 48 49 48 51 54 56 58 58 58 59 60 62 62 60 59 57 58 58 58 58 58 60 62 63 63 64 65 65 60 64 67 67 68 69
49 48 50 51 48 47 46 47 48 47 47 48 52 53 55 56 58 57 57 58 61 60 59 57 57 56 57 57 57 57 59 61 62 61 62 63 63 65 61 62 64 66 67
48 48 48 47 46 45 46 46 46 46 47 49 50 52 54 54 55 56 56 57 58 59 58 58 57 57 56 57 57 57 57 58 59 60 60 60 60 59 58 58 58 60 64
46 46 46 46 45 45 45 45 46 46 47 47 49 52 52 52 54 55 55 56 57 59 58 58 57 57 57 57 57 57 57 57 57 58 60 59 58 57 56 55 55 56 59
45 45 45 44 44 44 43 42 42 42 43 46 49 51 52 51 53 53 55 55 57 57 59 58 57 57 56 57 56 55 53 54 54 54 55 53 52 51 52 53 54 53 53
44 43 44 44 43 43 43 42 42 42 43 44 49 50 51 51 52 53 54 55 56 57 59 58 58 57 56 58 54 54 50 51 51 51 51 50 49 50 50 52 50 49 50
42 42 43 42 43 43 42 43 42 43 44 46 46 48 49 50 51 52 53 54 54 57 58 59 59 58 55 57 58 55 51 49 49 50 48 48 48 48 50 49 48 48 49
42 41 41 42 42 44 42 41 39 39 39 43 44 46 48 50 50 51 52 53 54 56 59 59 61 59 58 55 55 54 56 57 51 46 49 47 47 46 46 46 45 46 46
40 40 40 40 41 42 42 40 39 39 40 42 44 45 47 49 50 50 51 52 52 55 59 61 60 59 58 57 56 53 54 53 56 53 46 44 44 43 44 44 43 43 45
39 39 39 39 40 41 41 40 39 38 39 40 42 43 45 46 48 49 50 51 54 56 60 60 60 59 58 58 56 56 54 55 52 53 51 47 44 41 42 42 42 42 42